Denver Centennial, CO

2:01 PM MST on November 16, 2019 (GMT -0700)
Centennial

Weather History for KAPA - October, 2019

Change the Weather History Date:

Wednesday, October 23, 2019

  Actual Average Record
Temperature  
Mean Temperature 43 °F -  
Max Temperature 56 °F 59 °F 82 °F (2003)
Min Temperature 30 °F 31 °F 26 °F (2002)
Degree Days  
Heating Degree Days 22    
Month to date heating degree days 336  
Moisture  
Dew Point 28 °F    
Average Humidity 69    
Maximum Humidity 96    
Minimum Humidity 25    
Precipitation  
Precipitation 0.25 in - - ()
Month to date precipitation 0.38  
Year to date precipitation 11.25  
Snow  
Snow - - - ()
Snow Depth 0.00 in    
Sea Level Pressure  
Sea Level Pressure 30.12 in    
Wind  
Wind Speed 9 mph ()    
Max Wind Speed 25 mph    
Max Gust Speed 39 mph    
Visibility 5.8 miles    
Events Snow    
Averages and records for this station are not official NWS values.
T = Trace of Precipitation, MM = Missing Value Source: Averaged Metar Reports

Daily Weather History Graph

Daily Weather History Graph

Search for Another Location

Airport or City:

Astronomy

Oct. 23, 2019 Rise Set
Actual Time 7:17 AM MDT 6:09 PM MDT
Civil Twilight 6:50 AM MDT 6:36 PM MDT
Nautical Twilight 6:18 AM MDT 7:07 PM MDT
Astronomical Twilight 5:47 AM MDT 7:39 PM MDT
Moon 1:40 AM MDT (10/23) 3:59 PM MDT (10/23)
Length of Visible Light 11h 46m
Length of Day
10h 51m
Waning Crescent, 26% of the Moon is Illuminated
Oct 23
Waning Crescent
Oct 27
New
Nov 4
First Quarter
Nov 12
Full
Nov 19
Last Quarter

Hourly Weather History & Observations

Time (MDT) Temp. Windchill Dew Point Humidity Pressure Visibility Wind Dir Wind Speed Gust Speed Precip Events Conditions
12:53 AM 55.9 °F - 21.0 °F 26% 29.82 in 10.0 mi NNW 19.6 mph 39.1 mph N/A   Partly Cloudy
1:53 AM 52.0 °F - 21.9 °F 31% 29.83 in 10.0 mi Variable 4.6 mph - N/A   Partly Cloudy
2:53 AM 48.0 °F - 21.0 °F 34% 29.84 in 10.0 mi NW 5.8 mph - N/A   Partly Cloudy
3:53 AM 54.0 °F - 19.0 °F 25% 29.80 in 10.0 mi WNW 16.1 mph 25.3 mph N/A   Clear
4:53 AM 46.9 °F - 19.9 °F 34% 29.87 in 10.0 mi Calm Calm - N/A   Scattered Clouds
5:53 AM 46.9 °F - 21.9 °F 37% 29.91 in 10.0 mi East 6.9 mph - N/A   Scattered Clouds
6:53 AM 35.1 °F 26.9 °F 30.0 °F 82% 30.04 in 10.0 mi East 11.5 mph - N/A   Mostly Cloudy
7:00 AM 36.0 °F 27.5 °F 30.0 °F 79% 30.08 in 10.0 mi East 12.7 mph - N/A   Mostly Cloudy
7:53 AM 36.0 °F 29.6 °F 30.9 °F 82% 30.07 in 10.0 mi ESE 8.1 mph - N/A   Overcast
8:53 AM 39.0 °F 33.4 °F 30.9 °F 73% 30.08 in 10.0 mi SE 8.1 mph - N/A   Mostly Cloudy
9:16 AM 39.0 °F 35.7 °F 30.0 °F 70% 30.12 in 10.0 mi ESE 4.6 mph - N/A   Scattered Clouds
9:53 AM 42.1 °F 39.2 °F 30.0 °F 62% 30.08 in 10.0 mi ENE 4.6 mph - N/A   Scattered Clouds
10:53 AM 45.0 °F 40.6 °F 30.0 °F 56% 30.04 in 10.0 mi SE 8.1 mph - N/A   Scattered Clouds
11:53 AM 48.0 °F - 28.9 °F 48% 30.04 in 10.0 mi East 10.4 mph 17.3 mph N/A   Scattered Clouds
12:53 PM 51.1 °F - 28.0 °F 41% 29.96 in 10.0 mi East 8.1 mph 20.7 mph N/A   Mostly Cloudy
1:53 PM 50.0 °F - 26.1 °F 39% 29.99 in 10.0 mi NE 13.8 mph 21.9 mph N/A   Mostly Cloudy
2:53 PM 41.0 °F 32.2 °F 30.9 °F 67% 30.07 in 10.0 mi NNE 18.4 mph 29.9 mph N/A   Mostly Cloudy
3:53 PM 39.9 °F 31.8 °F 30.0 °F 68% 30.09 in 4.0 mi NNE 15.0 mph - 0.00 in   Unknown
4:53 PM 37.9 °F 29.6 °F 30.0 °F 73% 30.15 in 2.5 mi North 13.8 mph - 0.00 in Snow Light Snow
5:31 PM 35.1 °F 23.8 °F 30.9 °F 85% 30.17 in 0.8 mi NNE 20.7 mph - 0.00 in Snow Light Snow
5:53 PM 34.0 °F 26.0 °F 32.0 °F 92% 30.19 in 0.5 mi NNE 10.4 mph - 0.01 in Snow Light Snow
6:14 PM 34.0 °F 29.8 °F 32.0 °F 92% 30.22 in 0.5 mi North 4.6 mph - 0.02 in Snow Light Snow
6:53 PM 33.1 °F 26.1 °F 32.0 °F 96% 30.32 in 0.5 mi North 8.1 mph - 0.06 in Snow Light Snow
7:53 PM 32.0 °F 22.1 °F 30.0 °F 92% 30.34 in 0.5 mi NNE 13.8 mph - 0.10 in Snow Light Snow
8:53 PM 32.0 °F 26.4 °F 28.9 °F 88% 30.36 in 0.5 mi NNE 5.8 mph - 0.02 in Snow Light Snow
9:12 PM 32.0 °F 24.8 °F 30.0 °F 92% 30.29 in 0.5 mi NNE 8.1 mph - 0.01 in Snow Light Snow
9:38 PM 32.0 °F 27.5 °F 30.0 °F 92% 30.30 in 1.0 mi NNE 4.6 mph - 0.02 in Snow Light Snow
9:53 PM 32.0 °F 26.4 °F 30.0 °F 92% 30.37 in 1.0 mi North 5.8 mph - 0.02 in Snow Light Snow
10:53 PM 30.9 °F 24.3 °F 28.0 °F 89% 30.38 in 1.0 mi East 6.9 mph - 0.01 in Snow Light Snow
11:14 PM 30.9 °F 25.2 °F 28.0 °F 89% 30.33 in 1.0 mi ENE 5.8 mph - 0.00 in Snow Light Snow
11:27 PM 30.9 °F 24.3 °F 28.0 °F 89% 30.33 in 1.0 mi NE 6.9 mph - 0.01 in Snow Light Snow
11:53 PM 30.0 °F 21.7 °F 28.0 °F 92% 30.37 in 1.0 mi NNE 9.2 mph - 0.01 in Snow Light Snow